Regional Weather Roundup
Issued by NWS

Home | Current Version | Previous Version | Text Only | Print | Product List | Glossary On
Versions: 1 2 3 4 5 6 7 8 9 10 11 12 13 14 15 16 17 18 19 20 21 22 23 24 25 26 27 28 29 30 31 32 33 34 35 36 37 38 39 40 41 42 43 44 45 46 47 48 49 50
984
ASUS43 KDMX 152106
RWRIA

WEATHER ROUNDUP FOR IOWA
NATIONAL WEATHER SERVICE DES MOINES IA
300 PM CST FRI DEC 15 2017

NOTE: "FAIR" INDICATES FEW OR NO CLOUDS BELOW 12,000 FEET WITH NO
SIGNIFICANT WEATHER AND/OR OBSTRUCTIONS TO VISIBILITY.

* - THESE STATIONS ARE NOT NWS STATIONS...THUS NOT UNDER NWS
QUALITY CONTROL.  THEY ALSO DO NOT REPORT WEATHER SUCH
AS PRECIPITATION OR FOG.

IAZ001>003-012>014-020>022-031>034-043>046-152200-
   NORTHWEST IOWA

CITY           SKY/WX    TMP DP  RH WIND       PRES   REMARKS
CARROLL *      MOSUNNY   45  25  45 SW22      29.83F
CHEROKEE *     CLOUDY    43  24  46 SW14      29.79F
DENISON *      CLOUDY    43  25  49 SW16G23   29.84F
LE MARS *      MOSUNNY   43  25  49 SW12      29.78F
ORANGE CITY *  CLOUDY    45  27  49 SW14      29.77F
SHELDON *      MOSUNNY   41  25  52 SW15      29.75F
SIOUX CITY     MOSUNNY   44  25  47 SW9       29.81F
SPENCER        MOSUNNY   42  24  49 W14       29.77F
STORM LAKE *   MOSUNNY   43  23  45 SW20G25   29.79F
$$

IAZ055>058-069>071-079>083-090>094-152200-
   SOUTHWEST IOWA

CITY           SKY/WX    TMP DP  RH WIND       PRES   REMARKS
ATLANTIC *     SUNNY     45  25  45 SW20G25   29.87F
AUDUBON *      MOSUNNY   43  25  49 SW18G25   29.86F
CLARINDA *     SUNNY     48  25  40 SW18G26     N/A
COUNCIL BLFS * CLOUDY    46  27  46 SW17G24   29.85F
CRESTON *      SUNNY     45  21  39 SW18G30   29.90F
HARLAN  *      CLOUDY    45  25  45 SW17      29.89F
LAMONI         SUNNY     44  20  38 SW21      29.93F
RED OAK *      MOSUNNY   46  27  46 SW23      29.88F
SHENANDOAH *   SUNNY     48  25  40 SW21G29   29.91F
$$

IAZ047>049-059>061-072>074-084-152200-
   CENTRAL IOWA

CITY           SKY/WX    TMP DP  RH WIND       PRES   REMARKS
AMES           SUNNY     45  24  43 W16       29.85F
ANKENY *       SUNNY     45  23  42 SW15G24   29.88F
BOONE *        PTSUNNY   45  23  42 SW15G24   29.83F
CHARITON *     SUNNY     45  19  36 SW21G26   29.91S
DES MOINES     PTSUNNY   46  22  38 SW21      29.87F
GRINNELL*      MOSUNNY   43  23  44 W20G28    29.88F
KNOXVILLE *    SUNNY     45  19  36 W16G29    29.89S
MARSHALLTOWN   MOSUNNY   44  24  45 W21G28    29.84F
NEWTON *       SUNNY     45  21  39 W16G24    29.88F
PELLA *        SUNNY     45  20  37 W14G23    29.91F
PERRY *          N/A     45  20  36 SW21G28   29.86F
$$

IAZ004>006-015-016-023>025-035-036-152200-
   NORTH CENTRAL IOWA

CITY           SKY/WX    TMP DP  RH WIND       PRES   REMARKS
ALGONA *       MOSUNNY   41  25  52 SW13      29.79S
CLARION *      PTSUNNY   45  25  45 W20       29.80F
ESTHERVILLE    SUNNY     40  26  57 W15       29.76F WCI  32
FORT DODGE *   CLOUDY    43  23  45 SW10G26   29.81F
MASON CITY     CLOUDY    40  25  55 W12       29.80F WCI  33
FOREST CITY *    N/A     41  27  56 W8G18     29.78F
WEBSTER CITY * MOSUNNY   43  23  45 SW13G22   29.80F
IOWA FALLS *     N/A     44  25  46 W21G28    29.84F
$$

IAZ007>011-017>019-026>030-037>042-050>054-066-152200-
   NORTHEAST IOWA

CITY           SKY/WX    TMP DP  RH WIND       PRES   REMARKS
CEDAR RAPIDS   CLOUDY    40  26  57 W13       29.87F WCI  32
CHARLES CITY * CLOUDY    39  30  70 W9G17     29.81F WCI  33
CLINTON *      CLOUDY    35  24  64 SW15      29.90S WCI  25
DECORAH *      CLOUDY    34  28  80 VRB6      29.80F WCI  29
DUBUQUE        CLOUDY    32  26  78 SW14      29.85S WCI  22
MONTICELLO *   CLOUDY    37  27  65 W12       29.86F WCI  30
OELWEIN *      CLOUDY    37  28  70 W15       29.83F WCI  28
WATERLOO       CLOUDY    41  24  51 W17G23    29.83F
$$

IAZ064-065-067-068-078-152200-
   EAST CENTRAL IOWA

CITY           SKY/WX    TMP DP  RH WIND       PRES   REMARKS
DAVENPORT      CLOUDY    37  23  56 W15       29.93F WCI  28
IOWA CITY      CLOUDY    41  25  53 SW8       29.91F
MT. PLEASANT * SUNNY     43  20  41 W15G23    29.95R
MUSCATINE *    CLOUDY    39  23  52 SW12G20   29.93F WCI  32
QUAD CITIES    CLOUDY    39  24  55 W14       29.91F WCI  31
$$

IAZ062-063-075>077-085>089-095>099-152200-
   SOUTHEAST IOWA

CITY           SKY/WX    TMP DP  RH WIND       PRES   REMARKS
BURLINGTON     CLOUDY    42  23  46 W16G23    29.94F
FAIRFIELD *    SUNNY     43  21  42 SW15G23   29.92S
FORT MADISON * SUNNY     43  21  42 W12G18    29.96S
KEOKUK *       SUNNY     43  21  42 W14G25    29.96F
OSKALOOSA *      N/A     43  21  42 W20G25    29.91F
OTTUMWA        SUNNY     44  21  40 SW22      29.92F
WASHINGTON *   CLOUDY    43  23  45 W24G31    29.92F
$$

ABBREVIATIONS USED IN REMARKS
   TC - TEMPERATURES IN CELSIUS
  WCI - WIND CHILL INDEX
   HX - HEAT INDEX
  VSB - VISIBILITY
$$





USA.gov is the U.S. government's official web portal to all federal, state and local government web resources and services.